Location: Chmeln�
(49.6483°N, 14.9871°E)
Time: 03:03:23
(UTC+00:00)

Cosmos 2285 Rocket - Pass Details

Date: 18 September 2020
Orbit: 970 x 1000 km, 74.0° (Epoch: 24 October)

Event Time Altitude Azimuth Distance (km) Brightness Sun altitude
Rises 19:32:58 0° 197° (SSW) 3,652 6.8 -23.2°
Reaches altitude 10° 19:35:28 10° 197° (SSW) 2,711 6.2 -23.6°
Maximum altitude 19:41:45 81° 111° (ESE) 995 3.8 -24.4°
Drops below altitude 10° 19:48:07 10° 25° (NNE) 2,747 6.5 -25.3°
Sets 19:50:41 0° 25° (NNE) 3,703 7.2 -25.6°
